This demonstration page uses our WeatherBlox Daily Observations layout. Learn more.

Left ArrowRight Arrow

44.89941, -97.11507

Hourly Observations for January 3, 2021

Temp ( °F °C ) Dew Point ( °F °C ) Humidity (%) Winds ( mph kmh ) Pressure ( in mb ) Visibility ( mi km ) Precip ( " mm )
12:53 am 00:53 Clear 20 -6.7 16 -8.9 85 85 SSW 14 22 29.84 1010 10 16 0.00 0.00
1:53 am 01:53 Clear 19 -7.2 16 -8.9 88 88 SE 5 7 29.83 1010 10 16 0.00 0.00
2:53 am 02:53 Clear 16 -8.9 14 -10 92 92 SE 6 9 29.84 1011 8 13 0.00 0.00
3:53 am 03:53 Clear 16 -8.9 14 -10 92 92 SSE 9 15 29.84 1011 9 14 0.00 0.00
4:53 am 04:53 Clear 12 -11.1 10 -12.2 92 92 SSE 15 24 29.82 1010 8 13 0.00 0.00
5:53 am 05:53 Clear 13 -10.6 12 -11.1 96 96 SSW 3 6 29.84 1010 8 13 0.00 0.00
6:53 am 06:53 Clear with Mist and Fog 11 -11.7 9 -12.8 92 92 Calm 29.85 1011 5 8 0.00 0.00
7:53 am 07:53 Clear with Mist and Fog 11 -11.7 11 -11.7 100 100 S 6 9 29.83 1010 6 10 0.00 0.00
8:53 am 08:53 Sunny with Mist and Fog 10 -12.2 8 -13.3 92 92 SE 6 9 29.85 1011 6 10 0.00 0.00
9:53 am 09:53 Sunny 15 -9.4 13 -10.6 91 91 SSE 7 11 29.85 1011 7 11 0.00 0.00
10:53 am 10:53 Sunny 19 -7.2 16 -8.9 88 88 SE 9 15 29.83 1010 9 14 0.00 0.00
11:53 am 11:53 Sunny 22 -5.6 19 -7.2 89 89 SSE 10 17 29.82 1010 8 13 0.00 0.00
12:53 pm 12:53 Sunny 26 -3.3 22 -5.6 84 84 S 8 13 29.79 1009 10 16 0.00 0.00
1:53 pm 13:53 Sunny 28 -2.2 24 -4.4 85 85 SSE 12 19 29.78 1008 10 16 0.00 0.00
2:53 pm 14:53 Sunny 28 -2.2 24 -4.4 85 85 SSE 8 13 29.78 1009 9 14 0.00 0.00
3:53 pm 15:53 Sunny 28 -2.2 23 -5 81 81 SSE 7 11 29.79 1009 9 14 0.00 0.00
4:53 pm 16:53 Sunny 24 -4.4 21 -6.1 88 88 SSE 6 9 29.80 1009 7 11 0.00 0.00
5:53 pm 17:53 Clear 21 -6.1 19 -7.2 92 92 SSE 7 11 29.81 1010 7 11 0.00 0.00
6:53 pm 18:53 Clear with Mist and Fog 19 -7.2 18 -7.8 96 96 SSE 9 15 29.82 1010 5 8 0.00 0.00
7:31 pm 19:31 Mostly Clear with Mist and Fog 18 -7.8 17 -8.3 96 96 SSE 10 17 29.86 1011 3 4 0.00 0.00
7:53 pm 19:53 Mostly Clear with Mist and Fog 19 -7.2 18 -7.8 96 96 SSE 12 19 29.81 1010 3 4 0.00 0.00
8:20 pm 20:20 Mostly Clear with Mist and Fog 19 -7.2 18 -7.8 96 96 SSE 12 19 29.83 1010 3 5 0.00 0.00
8:45 pm 20:45 Partly Cloudy with Mist and Fog 19 -7.2 18 -7.8 96 96 SSE 10 17 29.83 1010 2 3 0.00 0.00
8:53 pm 20:53 Mostly Cloudy with Mist and Fog 19 -7.2 18 -7.8 96 96 SSE 10 17 29.80 1009 2 3 0.00 0.00
9:10 pm 21:10 Mostly Cloudy with Mist and Fog 18 -7.8 17 -8.3 96 96 SSE 13 20 29.85 1011 3 5 0.00 0.00
9:17 pm 21:17 Partly Cloudy with Mist and Fog 18 -7.8 17 -8.3 96 96 S 12 19 29.85 1011 3 5 0.00 0.00
9:53 pm 21:53 Clear with Mist and Fog 17 -8.3 16 -8.9 95 95 SSE 9 15 29.80 1009 4 6 0.00 0.00
10:53 pm 22:53 Clear with Mist and Fog 14 -10 13 -10.6 95 95 S 7 11 29.81 1010 5 8 0.00 0.00
11:53 pm 23:53 Clear with Mist and Fog 15 -9.4 13 -10.6 91 91 Calm 29.81 1009 4 6 0.00 0.00

Powered by AerisWeather